Weather in Chambery

France     45°34′17″N   5°55′03″E
temp.,
°C
wind,
m/s
gust,
m/s
humid.,
%
clouds,
%
prec.,
mm/h
press.,
hPa
HPBL,
m
4 march, thu
thu401:00+5ese117388 0.0 102822
04:00+4ese117251 0.0 102622
07:00+3ese117266 0.0 102522
10:00+9e015532 0.0 1023268
13:00+13wnw114626 0.0 1021992
16:00+12nw225261 0.0 10191070
19:00+7nw117663 0.0 101922
22:00+5ese008470 0.0 102022
5 march, fri
fri501:00+5se118483 0.0 102022
04:00+3e118885 0.0 101922
07:00+2e119042 0.0 101922
10:00+6nnw117640 0.0 1019283
13:00+8nw227568 0.1 1018558
16:00+8wnw127188 0.3 1018839
19:00+6wnw128990 0.8 101983
22:00+4nnw239394 0.2 1022207
6 march, sat
sat601:00+3nnw129396 0.2 1023189
04:00+3nw1295100 0.0 1023190
07:00+2nnw1296100 0.0 1024126
10:00+5nnw118297 0.0 1025366
13:00+8nw216996 0.0 1025589
16:00+9nw226232 0.0 1024671
19:00+4n118622 0.0 102522
22:00+3ese119026 0.0 102622
7 march, sun
sun701:00+4ese118655 0.0 102722
04:00+5ese1184100 0.1 102555
07:00+4se1193100 1.6 1025104
10:00+4sse1296100 2.5 1024160
13:00+11sw016579 2.6 1022794
16:00+9wnw226894 0.8 1020834
19:00+5wnw118897 2.1 102022
22:00+4n119194 0.1 102122
8 march, mon
mon801:00+2ese009464 0.2 102022
04:00+2nnw019635 0.0 102024
07:00+1nw119946 0.0 102038
10:00+3nnw1292100 0.0 1019260
13:00+5nnw228399 0.1 1019488
16:00+6nw1280100 0.1 1017557
19:00+3w119396 0.2 101926
22:00+1nw119550 0.0 102123